Flag for Germany Weather past 2 weeks in Burgdorf, Lower Saxony, Germany

Now
63 °F

Fog.


Feels Like: 63 °F
Forecast: 54 / 61 °F
Wind: No wind

Location: Celle Airport

Current Time: Sep 20, 2014 at 6:39:31 AM

Latest Report: Sep 20, 2014 at 5:20 AM


Visibility: 3 mi

Pressure: 29.89 "Hg

Humidity: 94%

Dew point: 61 °F

Location of BurgdorfLocation

Historic Weather in Burgdorf — Graph

°F

Burgdorf temperature yesterday

Maximum temperature yesterday: 72 °F (at 3:20 PM)
Minimum temperature yesterday: 57 °F (at 1:20 AM)
Average temperature yesterday: 64 °F

Past Weeks' High & Low Weather Summary

 TemperatureHumidityPressure
High79 °F (Sep 6, 2:20 PM)100% (Sep 6, 7:20 AM)30.21 "Hg (Sep 6, 7:20 AM)
Low48 °F (Sep 8, 6:20 AM)47% (Sep 17, 4:20 PM)29.86 "Hg (Sep 6, 3:20 PM)
Average62 °F84%30.03 "Hg
* Reported Sep 5 5:20 AM — Sep 20 5:20 AM, Burgdorf, Weather by CustomWeather, © 2014

Note: Actual official high and low records may vary slightly from our data, if they occured in-between our weather recording intervals... More about our weather records

Advertising

Burgdorf weather history for previous 24 hours

 ConditionsComfort  
Time TempWeatherWind HumidityBarometerVisibility
5:20 AM
Sep 20
63 °FFog.No wind94%29.89 "Hg3 mi
4:20 AM63 °FLight rain. Passing clouds.2 mph94%29.89 "HgN/A
3:20 AM63 °FPartly cloudy.2 mph94%29.92 "HgN/A
2:20 AM63 °FPartly cloudy.2 mph94%29.92 "HgN/A
1:20 AM63 °FPartly cloudy.2 mph94%29.92 "HgN/A
12:20 AM63 °FPassing clouds.3 mph94%29.92 "HgN/A
11:20 PM
Sep 19
64 °FPartly cloudy.3 mph88%29.92 "HgN/A
10:20 PM66 °FPartly cloudy.2 mph83%29.92 "HgN/A
9:20 PM66 °FPartly cloudy.5 mph83%29.92 "HgN/A
8:20 PM68 °FPartly sunny.5 mph73%29.92 "HgN/A
7:20 PM68 °FPartly sunny.5 mph78%29.89 "HgN/A
6:20 PM70 °FPartly sunny.7 mph73%29.89 "HgN/A
5:20 PM72 °FPartly sunny.7 mph69%29.89 "HgN/A
4:20 PM72 °FPartly sunny.6 mph69%29.89 "HgN/A
3:20 PM72 °FScattered clouds.7 mph69%29.89 "HgN/A
2:20 PM70 °FPartly sunny.7 mph69%29.89 "HgN/A
1:20 PM68 °FPartly sunny.6 mph78%29.92 "HgN/A
12:20 PM66 °FPartly sunny.6 mph78%29.92 "HgN/A
11:20 AM64 °FPartly sunny.5 mph88%29.92 "HgN/A
10:20 AM64 °FSprinkles. Partly sunny.3 mph88%29.92 "Hg6 mi
8:20 AM61 °FPartly sunny.2 mph88%29.89 "Hg4 mi
7:20 AM59 °FLight rain. Partly cloudy.1 mph94%29.89 "Hg5 mi
6:20 AM61 °FPassing clouds.2 mph88%29.89 "HgN/A
Weather by CustomWeather, © 2014

See weather overviewHow to use our weather pages